"2009-12-19 00:00:00",1515166,5.328,123.8,6.884,1.078,5.358,100.4414,0.426,1.747,46.11,0,109.6,13.57,1.18,85.8
"2009-12-19 00:00:30",1515167,5.834,122.8,5.558,1.014,5.725,100.4414,0.426,1.764,46.23,0,109.6,13.57,1.18,84.8
"2009-12-19 00:01:00",1515168,6.09,119.2,5.212,1.067,5.673,100.4414,0.426,1.712,46.42,0,109.6,13.57,1.18,81.2
"2009-12-19 00:01:30",1515169,5.571,113.5,6.331,1.221,4.042,100.4411,0.425,1.608,46.45,0,109.6,13.57,1.18,75.5
"2009-12-19 00:02:00",1515170,6.472,121.6,6.698,1.212,5.26,100.4403,0.423,1.72,46.45,0,109.6,13.57,1.18,83.6
"2009-12-19 00:02:30",1515171,7.176,125.4,6.205,1.165,5.525,100.4346,0.409,1.737,46.22,0,109.6,13.57,1.16,87.4
"2009-12-19 00:03:00",1515172,7.827,127.5,3.832,0.677,6.669,100.431,0.399,1.772,46.11,0,109.6,13.57,1.15,89.5
"2009-12-19 00:03:30",1515173,7.366,127.9,4.502,1.054,5.795,100.425,0.384,1.701,45.99,0,109.6,13.56,1.14,89.9
"2009-12-19 00:04:00",1515174,7.559,127.6,5.69,0.992,5.272,100.4202,0.372,1.673,46.07,0,109.6,13.56,1.13,89.6
"2009-12-19 00:04:30",1515175,6.733,123,6.604,1.19,4.191,100.4177,0.365,1.617,45.88,0,109.6,13.56,1.12,85.0
"2009-12-19 00:05:00",1515176,7.298,124.4,5.925,1.058,5.453,100.4203,0.372,1.691,45.97,0,109.6,13.56,1.13,86.4
"2009-12-19 00:05:30",1515177,7.513,127.2,3.563,0.679,6.687,100.4237,0.381,1.719,45.9,0,109.6,13.56,1.13,89.2
"2009-12-19 00:06:00",1515178,7.621,127.6,3.623,0.565,6.753,100.4276,0.391,1.738,45.98,0,109.6,13.56,1.14,89.6
"2009-12-19 00:06:30",1515179,7.421,124.9,3.11,0.679,6.572,100.4308,0.399,1.735,46.04,0,109.6,13.56,1.15,86.9
"2009-12-19 00:07:00",1515180,6.844,120,5.924,1.177,4.757,100.4319,0.402,1.644,45.98,0,109.6,13.56,1.16,82.0
"2009-12-19 00:07:30",1515181,6.262,118.1,4.758,1.186,3.06,100.4339,0.407,1.423,45.95,0,109.6,13.56,1.16,80.1
"2009-12-19 00:08:00",1515182,7.009,123.3,6.188,1.111,4.86,100.4345,0.408,1.649,46.32,0,109.6,13.56,1.16,85.3
"2009-12-19 00:08:30",1515183,7.317,123.8,5.579,1.091,5.946,100.4345,0.408,1.68,46.59,0,109.6,13.57,1.16,85.8
"2009-12-19 00:09:00",1515184,7.701,124,4.308,0.554,6.876,100.4353,0.41,1.711,46.83,0,109.6,13.57,1.16,86.0
"2009-12-19 00:09:30",1515185,7.619,124.1,3.939,0.565,6.629,100.4336,0.406,1.711,46.76,0,109.6,13.57,1.16,86.1
"2009-12-19 00:10:00",1515186,7.766,124.5,3.403,0.537,6.464,100.4297,0.396,1.683,46.9,0,109.6,13.57,1.15,86.5
"2009-12-19 00:10:30",1515187,7.733,125.9,3.97,0.577,5.981,100.4175,0.365,1.682,47.08,0,109.6,13.57,1.12,87.9
"2009-12-19 00:11:00",1515188,7.521,123.3,2.97,0.766,5.713,100.4087,0.343,1.697,47.01,0,109.6,13.57,1.10,85.3
"2009-12-19 00:11:30",1515189,7.396,122.2,4.621,0.881,5.477,100.4073,0.339,1.666,46.99,0,109.6,13.57,1.09,84.2
"2009-12-19 00:12:00",1515190,5.965,116.2,5.193,1.148,2.758,100.4073,0.339,1.503,46.84,0,109.6,13.57,1.09,78.2
"2009-12-19 00:12:30",1515191,5.372,113.3,4.263,0.842,2.577,100.4073,0.339,1.505,46.72,0,109.6,13.57,1.09,75.3
"2009-12-19 00:13:00",1515192,6.75,115.5,6.883,1.179,4.109,100.4076,0.34,1.5,46.66,0,109.6,13.57,1.09,77.5
"2009-12-19 00:13:30",1515193,8.29,119.1,4.336,0.469,6.924,100.4076,0.34,1.664,47.04,0,109.6,13.57,1.09,81.1
"2009-12-19 00:14:00",1515194,8.36,114.9,3.275,0.916,6.485,100.4076,0.34,1.685,47.11,0,109.6,13.57,1.09,76.9
"2009-12-19 00:14:30",1515195,8.29,114.1,1.994,0.843,6.279,100.4051,0.333,1.663,47.13,0,109.6,13.57,1.09,76.1
"2009-12-19 00:15:00",1515196,8.17,113.8,4.129,0.606,6.286,100.3974,0.314,1.637,47.14,0,109.6,13.57,1.07,75.8
"2009-12-19 00:15:30",1515197,8.23,113.3,2.836,0.752,6.107,100.3892,0.293,1.643,47.16,0,109.6,13.57,1.05,75.3
"2009-12-19 00:16:00",1515198,8.05,112.8,3.906,1.024,4.831,100.3855,0.283,1.603,47.2,0,109.6,13.57,1.04,74.8
"2009-12-19 00:16:30",1515199,8.43,113.1,3.788,0.577,5.997,100.3756,0.258,1.608,47.4,0,109.6,13.57,1.01,75.1
"2009-12-19 00:17:00",1515200,7.379,110.2,6.368,1.219,4.448,100.3736,0.253,1.478,47.15,0,109.6,13.57,1.01,72.2
"2009-12-19 00:17:30",1515201,7.469,112.3,5.346,1.096,5.041,100.3736,0.253,1.525,47.16,0,109.6,13.57,1.01,74.3
"2009-12-19 00:18:00",1515202,7.487,113.5,6.393,0.976,5.464,100.3736,0.253,1.557,47.17,0,109.6,13.57,1.01,75.5
"2009-12-19 00:18:30",1515203,7.582,117.4,3.691,0.742,6.262,100.3736,0.253,1.587,47.16,0,109.6,13.58,1.01,79.4
"2009-12-19 00:19:00",1515204,7.722,117.2,3.287,0.639,6.127,100.3736,0.253,1.577,47.16,0,109.6,13.58,1.01,79.2
"2009-12-19 00:19:30",1515205,7.221,113.8,5.597,1.144,5.314,100.3719,0.249,1.501,47.11,0,109.6,13.57,1.00,75.8
"2009-12-19 00:20:00",1515206,7.351,112,5.784,1.109,5.209,100.37,0.244,1.515,47.08,0,109.6,13.57,1.00,74.0
"2009-12-19 00:20:30",1515207,6.947,109.8,5.893,1.167,4.249,100.3629,0.226,1.461,47.07,0,109.7,13.58,0.98,71.8
"2009-12-19 00:21:00",1515208,7.105,112.7,5.643,1.08,5.275,100.3592,0.216,1.504,47.13,0,109.6,13.58,0.97,74.7
"2009-12-19 00:21:30",1515209,7.646,113,5.757,1.076,5.172,100.3578,0.213,1.488,47.16,0,109.6,13.58,0.97,75.0
"2009-12-19 00:22:00",1515210,7.736,115.2,4.43,0.752,6.193,100.3521,0.198,1.541,47.33,0,109.6,13.58,0.95,77.2
"2009-12-19 00:22:30",1515211,7.832,112.4,4.813,1.041,5.896,100.3482,0.188,1.565,47.34,0,109.6,13.58,0.94,74.4
"2009-12-19 00:23:00",1515212,7.389,108.9,6.123,1.134,5.331,100.3408,0.169,1.487,47.32,0,109.6,13.58,0.92,70.9
"2009-12-19 00:23:30",1515213,8.36,111,3.709,0.53,6.007,100.3414,0.171,1.535,47.47,0,109.6,13.57,0.92,73.0
"2009-12-19 00:24:00",1515214,8.38,112.4,4.072,0.69,5.863,100.34,0.167,1.537,47.52,0,109.6,13.57,0.92,74.4
"2009-12-19 00:24:30",1515215,8.14,113.3,5.389,0.917,5.813,100.3397,0.166,1.539,47.55,0,109.6,13.57,0.92,75.3
"2009-12-19 00:25:00",1515216,7.772,108.9,6.145,1.18,4.201,100.3397,0.166,1.357,47.38,0,109.6,13.57,0.92,70.9
"2009-12-19 00:25:30",1515217,7.879,115.2,6.008,1.17,5.055,100.3397,0.166,1.437,47.5,0,109.6,13.57,0.92,77.2
"2009-12-19 00:26:00",1515218,8.08,117.6,4.757,1.035,5.431,100.3397,0.166,1.475,47.62,0,109.6,13.57,0.92,79.6
"2009-12-19 00:26:30",1515219,7.831,117.1,4.784,0.98,5.856,100.3397,0.166,1.526,47.71,0,109.6,13.57,0.92,79.1
"2009-12-19 00:27:00",1515220,7.89,116.9,5.413,0.906,5.483,100.3397,0.166,1.492,47.73,0,109.6,13.57,0.92,78.9
"2009-12-19 00:27:30",1515221,7.823,119.4,3.465,0.756,5.987,100.3397,0.166,1.51,47.77,0,109.6,13.57,0.92,81.4
"2009-12-19 00:28:00",1515222,7.838,115.5,5.2,1.01,5.479,100.3354,0.156,1.434,47.73,0,109.6,13.57,0.91,77.5
"2009-12-19 00:28:30",1515223,7.655,111.5,5.434,1.067,5.419,100.3269,0.134,1.427,47.75,0,109.6,13.58,0.89,73.5
"2009-12-19 00:29:00",1515224,7.534,113.2,5.139,1.11,5.136,100.3241,0.127,1.454,47.9,0,109.6,13.58,0.88,75.2
"2009-12-19 00:29:30",1515225,8.06,109.9,4.939,1.146,5.55,100.3142,0.102,1.449,47.87,0,109.6,13.58,0.85,71.9
"2009-12-19 00:30:00",1515226,7.821,110.7,4.764,1.132,5.326,100.3102,0.091,1.406,47.98,0,109.6,13.59,0.84,72.7
"2009-12-19 00:30:30",1515227,8.33,113.2,3.834,0.505,5.89,100.3111,0.094,1.449,48.09,0,109.6,13.59,0.85,75.2
"2009-12-19 00:31:00",1515228,7.894,113,4.073,1.063,5.328,100.3097,0.09,1.386,48.09,0,109.6,13.59,0.84,75.0
"2009-12-19 00:31:30",1515229,7.753,116.8,4.463,0.948,5.718,100.3137,0.1,1.429,48.2,0,109.6,13.59,0.85,78.8
"2009-12-19 00:32:00",1515230,8.31,116.9,5.112,0.747,6.286,100.3128,0.098,1.461,48.28,0,109.6,13.59,0.85,78.9
"2009-12-19 00:32:30",1515231,7.898,123.3,3.635,0.735,6.02,100.3154,0.104,1.467,48.34,0,109.6,13.59,0.86,85.3
"2009-12-19 00:33:00",1515232,7.74,118.2,3.654,0.636,5.941,100.3131,0.099,1.443,48.36,0,109.6,13.59,0.85,80.2
"2009-12-19 00:33:30",1515233,7.64,123,3.863,0.68,5.627,100.3077,0.085,1.426,48.41,0,109.6,13.59,0.84,85.0
"2009-12-19 00:34:00",1515234,8.13,123.4,3.148,0.638,5.564,100.2981,0.06,1.412,48.47,0,109.6,13.59,0.81,85.4
"2009-12-19 00:34:30",1515235,8.03,122.1,4.433,0.429,5.317,100.2871,0.032,1.409,48.51,0,109.6,13.59,0.78,84.1
"2009-12-19 00:35:00",1515236,7.942,126.7,4.061,0.67,5.135,100.2839,0.024,1.416,48.57,0,109.6,13.59,0.78,88.7
"2009-12-19 00:35:30",1515237,7.773,124.9,3.849,0.627,5.194,100.2839,0.024,1.401,48.59,0,109.6,13.59,0.78,86.9
"2009-12-19 00:36:00",1515238,7.259,122.9,5.917,1.215,3.679,100.2842,0.025,1.293,48.52,0,109.6,13.59,0.78,84.9
"2009-12-19 00:36:30",1515239,6.417,113.6,4.957,0.893,2.2,100.2842,0.025,1.258,48.52,0,109.6,13.59,0.78,75.6
"2009-12-19 00:37:00",1515240,7.764,120.7,4.72,1.014,4.75,100.2874,0.033,1.253,48.54,0,109.6,13.59,0.79,82.7
"2009-12-19 00:37:30",1515241,7.785,125.4,4.275,1.007,5.766,100.2908,0.042,1.355,48.74,0,109.6,13.59,0.79,87.4
"2009-12-19 00:38:00",1515242,7.978,122.5,4.012,0.604,6.459,100.2925,0.046,1.367,48.82,0,109.6,13.59,0.80,84.5
"2009-12-19 00:38:30",1515243,8.17,125.4,5.318,0.626,6.311,100.2885,0.036,1.368,48.89,0,109.6,13.59,0.79,87.4
"2009-12-19 00:39:00",1515244,7.593,123.4,5.238,1.041,5.464,100.2823,0.02,1.34,48.94,0,109.6,13.59,0.77,85.4
"2009-12-19 00:39:30",1515245,7.763,127.6,4.908,0.931,5.252,100.2797,0.014,1.335,48.99,0,109.6,13.59,0.77,89.6
"2009-12-19 00:40:00",1515246,7.539,130,4.899,0.997,5.702,100.2741,-0.001,1.315,49.08,0,109.6,13.59,0.75,92.0
"2009-12-19 00:40:30",1515247,7.552,126.6,4.043,0.685,6.039,100.2681,-0.016,1.308,49.13,0,109.6,13.58,0.74,88.6
"2009-12-19 00:41:00",1515248,6.783,121,5.734,1.244,4.309,100.2627,-0.03,1.205,49,0,109.6,13.58,0.72,83.0
"2009-12-19 00:41:30",1515249,7.464,124.7,4.958,0.955,4.729,100.2622,-0.031,1.25,49.08,0,109.6,13.58,0.72,86.7
"2009-12-19 00:42:00",1515250,7.109,121.5,5.53,1.197,4.154,100.2636,-0.028,1.152,49.05,0,109.6,13.58,0.72,83.5
"2009-12-19 00:42:30",1515251,7.762,124.8,4.302,0.768,6.272,100.2633,-0.028,1.308,49.24,0,109.6,13.59,0.72,86.8
"2009-12-19 00:43:00",1515252,7.806,124.2,2.626,0.61,6.236,100.2633,-0.028,1.3,49.23,0,109.6,13.59,0.72,86.2
"2009-12-19 00:43:30",1515253,8.08,128.1,2.767,0.768,6.248,100.2642,-0.026,1.301,49.24,0,109.6,13.58,0.73,90.1
"2009-12-19 00:44:00",1515254,7.955,129.5,4.236,0.672,6.281,100.2636,-0.028,1.288,49.22,0,109.5,13.59,0.72,91.5
"2009-12-19 00:44:30",1515255,7.766,130,3.616,0.606,5.983,100.2639,-0.027,1.274,49.3,0,109.6,13.59,0.73,92.0
"2009-12-19 00:45:00",1515256,7.653,131.6,2.436,0.83,5.649,100.2642,-0.026,1.281,49.35,0,109.5,13.59,0.73,93.6
"2009-12-19 00:45:30",1515257,7.388,124.6,7.763,1.04,4.49,100.2647,-0.025,1.236,49.37,0,109.6,13.59,0.73,86.6
"2009-12-19 00:46:00",1515258,6.589,125.8,6.505,1.113,3.541,100.2667,-0.02,1.096,49.26,0,109.6,13.59,0.73,87.8
"2009-12-19 00:46:30",1515259,6.51,123.4,4.373,1.11,3.482,100.2661,-0.021,1.166,49.41,0,109.6,13.59,0.73,85.4
"2009-12-19 00:47:00",1515260,7.421,123.8,3.592,0.892,5.743,100.2679,-0.017,1.237,49.49,0,109.6,13.59,0.74,85.8
"2009-12-19 00:47:30",1515261,7.548,123.8,4.817,0.68,6.367,100.2647,-0.025,1.247,49.56,0,109.6,13.6,0.73,85.8
"2009-12-19 00:48:00",1515262,7.815,125,4.596,0.358,6.489,100.2656,-0.022,1.245,49.52,0,109.6,13.6,0.73,87.0
"2009-12-19 00:48:30",1515263,7.247,122.9,4.567,0.926,5.764,100.2619,-0.032,1.255,49.51,0,109.5,13.6,0.72,84.9
"2009-12-19 00:49:00",1515264,6.941,122.3,5.06,1.014,4.784,100.2585,-0.04,1.181,49.42,0,109.6,13.6,0.71,84.3
"2009-12-19 00:49:30",1515265,6.906,123.7,6.804,1.164,4.636,100.254,-0.052,1.147,49.41,0,109.5,13.6,0.70,85.7
"2009-12-19 00:50:00",1515266,6.551,127,6.611,1.235,4.261,100.2528,-0.055,1.187,49.46,0,109.5,13.6,0.70,89.0
"2009-12-19 00:50:30",1515267,7.062,130.9,6.592,0.973,5.337,100.2506,-0.061,1.149,49.44,0,109.6,13.6,0.69,92.9
"2009-12-19 00:51:00",1515268,7.052,135.4,4.049,0.731,6.156,100.2475,-0.069,1.261,49.51,0,109.5,13.6,0.68,97.4
"2009-12-19 00:51:30",1515269,7.271,134.3,4.17,0.756,6.119,100.2458,-0.073,1.229,49.5,0,109.5,13.6,0.68,96.3
"2009-12-19 00:52:00",1515270,6.986,136.2,3.329,0.819,5.847,100.2421,-0.082,1.238,49.51,0,109.6,13.6,0.67,98.2
"2009-12-19 00:52:30",1515271,7.045,130.7,7.525,0.999,5.201,100.239,-0.09,1.2,49.53,0,109.5,13.6,0.66,92.7
"2009-12-19 00:53:00",1515272,6.865,124.6,6.497,1.122,4.775,100.2387,-0.091,1.152,49.52,0,109.5,13.6,0.66,86.6
"2009-12-19 00:53:30",1515273,6.101,119.7,5.415,1.088,2.98,100.2378,-0.093,1.012,49.45,0,109.5,13.6,0.66,81.7
"2009-12-19 00:54:00",1515274,6.771,124.7,5.78,1.054,4.964,100.2378,-0.093,1.111,49.56,0,109.5,13.6,0.66,86.7
"2009-12-19 00:54:30",1515275,6.403,127.2,7.26,1.112,4.66,100.2378,-0.093,1.19,49.66,0,109.5,13.6,0.66,89.2
"2009-12-19 00:55:00",1515276,7.034,131.4,3.712,0.626,5.982,100.2378,-0.093,1.242,49.63,0,109.6,13.6,0.66,93.4
"2009-12-19 00:55:30",1515277,6.824,132,4.728,0.897,5.362,100.2378,-0.093,1.173,49.58,0,109.5,13.6,0.66,94.0
"2009-12-19 00:56:00",1515278,6.262,133.8,7.132,1.171,4.518,100.2378,-0.093,1.146,49.56,0,109.5,13.6,0.66,95.8
"2009-12-19 00:56:30",1515279,6.692,135.1,5.604,1.15,4.834,100.2378,-0.093,1.137,49.48,0,109.5,13.6,0.66,97.1
"2009-12-19 00:57:00",1515280,6.728,134.8,5.573,1.075,4.944,100.2378,-0.093,1.189,49.44,0,109.5,13.59,0.66,96.8
"2009-12-19 00:57:30",1515281,6.974,135.6,5.925,0.978,5.106,100.2378,-0.093,1.12,49.38,0,109.5,13.59,0.66,97.6
"2009-12-19 00:58:00",1515282,7.367,137.2,3.7,0.757,5.934,100.2378,-0.093,1.208,49.44,0,109.5,13.59,0.66,99.2
"2009-12-19 00:58:30",1515283,7.392,136.7,3.888,0.637,6.25,100.2378,-0.093,1.207,49.49,0,109.5,13.59,0.66,98.7
"2009-12-19 00:59:00",1515284,6.685,135.5,5.788,1.154,5.163,100.2378,-0.093,1.151,49.47,0,109.5,13.59,0.66,97.5
"2009-12-19 00:59:30",1515285,6.681,135.1,5.432,1.065,5.337,100.2378,-0.093,1.111,49.4,0,109.5,13.59,0.66,97.1
"2009-12-19 01:00:00",1515286,7.294,132.9,3.724,0.797,5.977,100.2376,-0.094,1.198,49.6,0,109.5,13.59,0.66,94.9
"2009-12-19 01:00:30",1515287,7.137,128.5,5.701,1.113,4.973,100.2378,-0.093,1.087,49.66,0,109.5,13.6,0.66,90.5
"2009-12-19 01:01:00",1515288,7.353,127.7,5.684,0.939,5.836,100.2367,-0.096,1.187,49.87,0,109.5,13.6,0.66,89.7
"2009-12-19 01:01:30",1515289,7.316,129.4,6.113,1.109,5.354,100.2373,-0.095,1.178,49.89,0,109.5,13.6,0.66,91.4
"2009-12-19 01:02:00",1515290,6.787,132.5,5.534,1.074,5.24,100.2327,-0.106,1.117,49.85,0,109.6,13.6,0.65,94.5
"2009-12-19 01:02:30",1515291,6.854,132.5,6.191,1.058,4.879,100.2265,-0.122,1.107,49.87,0,109.5,13.6,0.63,94.5
"2009-12-19 01:03:00",1515292,7.545,132.4,5.244,0.889,5.786,100.2214,-0.135,1.183,49.96,0,109.5,13.6,0.62,94.4
"2009-12-19 01:03:30",1515293,6.983,128.9,6.101,1.013,5.034,100.2172,-0.146,1.114,49.92,0,109.5,13.6,0.61,90.9
"2009-12-19 01:04:00",1515294,7.03,133.2,4.983,1.041,4.838,100.2095,-0.165,1.098,49.92,0,109.5,13.6,0.59,95.2
"2009-12-19 01:04:30",1515295,7.133,134.2,4.753,0.963,5.525,100.2073,-0.171,1.115,49.98,0,109.5,13.6,0.58,96.2
"2009-12-19 01:05:00",1515296,6.674,128,5.826,1.114,5.044,100.2047,-0.178,1.097,50.04,0,109.5,13.6,0.57,90.0
"2009-12-19 01:05:30",1515297,6.871,129.8,4.484,0.982,5.4,100.2039,-0.18,1.096,50.08,0,109.5,13.6,0.57,91.8
"2009-12-19 01:06:00",1515298,7.087,131.9,4.18,0.689,5.633,100.2039,-0.18,1.12,50.14,0,109.5,13.61,0.57,93.9
"2009-12-19 01:06:30",1515299,6.957,131.6,4.064,0.923,5.632,100.2039,-0.18,1.171,50.22,0,109.5,13.61,0.57,93.6
"2009-12-19 01:07:00",1515300,6.394,131.4,6.091,1.154,4.563,100.2039,-0.18,1.088,50.16,0,109.5,13.6,0.57,93.4
"2009-12-19 01:07:30",1515301,6.778,131.9,6.365,1.055,5.132,100.2039,-0.18,1.105,50.21,0,109.5,13.61,0.57,93.9
"2009-12-19 01:08:00",1515302,6.675,133.6,5.274,1.065,5.2,100.2039,-0.18,1.076,50.21,0,109.5,13.61,0.57,95.6
"2009-12-19 01:08:30",1515303,7.228,138.5,3.365,0.32,6.092,100.2039,-0.18,1.121,50.3,0,109.5,13.61,0.57,100.5
"2009-12-19 01:09:00",1515304,6.85,138.4,6.252,1.024,4.944,100.2039,-0.18,1.104,50.3,0,109.5,13.61,0.57,100.4
"2009-12-19 01:09:30",1515305,7.412,141.2,3.73,0.636,5.859,100.2039,-0.18,1.149,50.36,0,109.5,13.61,0.57,103.2
"2009-12-19 01:10:00",1515306,7.467,142.2,3.744,0.627,6.196,100.2039,-0.18,1.141,50.33,0,109.5,13.61,0.57,104.2
"2009-12-19 01:10:30",1515307,7.054,139.7,4.955,1.159,5.063,100.2039,-0.18,1.077,50.32,0,109.5,13.61,0.57,101.7
"2009-12-19 01:11:00",1515308,6.869,138.6,6.142,1.045,5.292,100.2024,-0.183,1.098,50.59,0,109.5,13.61,0.57,100.6
"2009-12-19 01:11:30",1515309,7.103,140.2,3.465,0.957,5.41,100.1959,-0.2,1.052,50.45,0,109.5,13.61,0.55,102.2
"2009-12-19 01:12:00",1515310,6.358,135.9,6.644,1.176,4.318,100.1863,-0.225,1.014,50.37,0,109.5,13.6,0.53,97.9
"2009-12-19 01:12:30",1515311,7.151,139.2,3.797,0.759,6.082,100.1809,-0.238,1.118,50.54,0,109.6,13.6,0.51,101.2
"2009-12-19 01:13:00",1515312,7.283,139.9,3.396,0.628,6.11,100.1764,-0.25,1.109,50.59,0,109.6,13.6,0.50,101.9
"2009-12-19 01:13:30",1515313,7.164,136.7,5.966,0.936,5.391,100.171,-0.264,1.036,50.69,0,109.5,13.6,0.49,98.7
"2009-12-19 01:14:00",1515314,6.964,137.9,5.343,1.048,5.183,100.1702,-0.266,1.039,50.84,0,109.5,13.6,0.49,99.9
"2009-12-19 01:14:30",1515315,6.849,136.8,5.471,1.052,5.275,100.1699,-0.266,1.022,50.99,0,109.5,13.6,0.48,98.8
"2009-12-19 01:15:00",1515316,6.665,138.2,5.024,1.045,4.991,100.1699,-0.266,1.029,50.99,0,109.5,13.6,0.48,100.2
"2009-12-19 01:15:30",1515317,6.701,137.6,5.456,1.054,5.238,100.1699,-0.266,1.028,50.95,0,109.5,13.6,0.48,99.6
"2009-12-19 01:16:00",1515318,6.634,137,5.869,0.997,5.569,100.1699,-0.266,1.01,50.94,0,109.5,13.6,0.48,99.0
"2009-12-19 01:16:30",1515319,6.678,133.8,5.949,1.062,5.143,100.1699,-0.266,1.026,50.98,0,109.5,13.6,0.48,95.8
"2009-12-19 01:17:00",1515320,6.898,132.1,5.496,1.087,4.9,100.1699,-0.266,1.016,51.16,0,109.5,13.6,0.48,94.1
"2009-12-19 01:17:30",1515321,6.943,133.2,5.001,1.018,5.152,100.1699,-0.266,0.988,51.41,0,109.5,13.61,0.48,95.2
"2009-12-19 01:18:00",1515322,6.652,133.9,5.495,1.072,5.003,100.169,-0.269,0.957,51.34,0,109.5,13.61,0.48,95.9
"2009-12-19 01:18:30",1515323,6.56,132.7,5.27,1.021,5.036,100.1662,-0.276,1.027,51.39,0,109.5,13.61,0.48,94.7
"2009-12-19 01:19:00",1515324,6.985,133.5,4.547,0.932,5.563,100.1597,-0.292,1.007,51.43,0,109.5,13.61,0.46,95.5
"2009-12-19 01:19:30",1515325,6.486,129.9,6.215,1.17,4.544,100.1535,-0.308,0.978,51.51,0,109.5,13.61,0.44,91.9
"2009-12-19 01:20:00",1515326,7.138,134.2,2.442,0.655,5.442,100.1521,-0.312,1.001,51.62,0,109.5,13.61,0.44,96.2
"2009-12-19 01:20:30",1515327,6.517,129.4,6.584,1.149,4.043,100.1518,-0.313,0.919,51.68,0,109.5,13.62,0.44,91.4
"2009-12-19 01:21:00",1515328,6.433,130.2,5.429,1.153,4.827,100.1478,-0.323,0.976,51.71,0,109.5,13.62,0.43,92.2
"2009-12-19 01:21:30",1515329,6.162,128,5.795,1.178,4.257,100.1438,-0.333,0.92,51.62,0,109.5,13.62,0.42,90.0
"2009-12-19 01:22:00",1515330,6.962,132.1,2.661,0.827,5.671,100.1396,-0.344,1.024,51.81,0,109.5,13.62,0.41,94.1
"2009-12-19 01:22:30",1515331,6.59,129.1,5.433,1.046,5.056,100.1359,-0.353,0.961,51.89,0,109.5,13.62,0.40,91.1
"2009-12-19 01:23:00",1515332,7.032,131,3.682,0.67,5.675,100.1362,-0.352,0.969,52.21,0,109.5,13.62,0.40,93.0
"2009-12-19 01:23:30",1515333,6.208,126.1,6.05,1.117,3.806,100.1359,-0.353,0.928,52.33,0,109.5,13.62,0.40,88.1
"2009-12-19 01:24:00",1515334,6.659,127.3,5.709,1.063,4.184,100.1359,-0.353,0.939,52.48,0,109.5,13.62,0.40,89.3
"2009-12-19 01:24:30",1515335,6.898,129.1,5.906,1.137,4.632,100.1359,-0.353,0.887,52.51,0,109.5,13.62,0.40,91.1
"2009-12-19 01:25:00",1515336,6.798,127.9,4.275,0.967,5.415,100.1325,-0.362,0.941,52.56,0,109.5,13.62,0.39,89.9
"2009-12-19 01:25:30",1515337,7.085,127.4,4.243,0.846,5.554,100.1229,-0.386,0.989,52.54,0,109.5,13.62,0.36,89.4
"2009-12-19 01:26:00",1515338,7.342,129.1,2.973,0.77,5.453,100.1167,-0.402,0.968,52.55,0,109.5,13.62,0.35,91.1
"2009-12-19 01:26:30",1515339,7.269,128.6,3.245,0.733,5.45,100.1152,-0.406,0.968,52.58,0,109.5,13.62,0.34,90.6
"2009-12-19 01:27:00",1515340,7.225,128.4,4.234,0.562,5.304,100.1079,-0.425,0.936,52.62,0,109.5,13.62,0.33,90.4
"2009-12-19 01:27:30",1515341,7.086,128.3,2.722,0.805,5.061,100.1025,-0.438,0.935,52.61,0,109.5,13.62,0.31,90.3
"2009-12-19 01:28:00",1515342,6.85,125.1,5.569,1.093,4.037,100.1022,-0.439,0.864,52.45,0,109.5,13.61,0.31,87.1
"2009-12-19 01:28:30",1515343,6.278,123.2,5.381,1.204,2.797,100.1019,-0.44,0.764,52.26,0,109.5,13.61,0.31,85.2
"2009-12-19 01:29:00",1515344,6.467,124.5,5.974,1.248,2.995,100.1019,-0.44,0.78,52.45,0,109.5,13.61,0.31,86.5
"2009-12-19 01:29:30",1515345,6.8,124.9,5.425,1.178,4.019,100.1022,-0.439,0.812,52.64,0,109.5,13.61,0.31,86.9
"2009-12-19 01:30:00",1515346,7.808,127.6,3.234,0.523,6.004,100.1019,-0.44,0.921,52.81,0,109.5,13.61,0.31,89.6
"2009-12-19 01:30:30",1515347,7.863,127.1,3.714,0.693,5.995,100.1017,-0.44,0.898,52.88,0,109.5,13.61,0.31,89.1
"2009-12-19 01:31:00",1515348,7.893,127.7,3.359,0.692,5.757,100.0934,-0.461,0.897,52.96,0,109.5,13.61,0.29,89.7
"2009-12-19 01:31:30",1515349,7.862,127.7,4.28,0.514,5.538,100.0864,-0.479,0.895,53,0,109.5,13.61,0.27,89.7
"2009-12-19 01:32:00",1515350,7.882,128.6,3.566,0.487,5.521,100.0821,-0.49,0.876,53.07,0,109.5,13.61,0.26,90.6
"2009-12-19 01:32:30",1515351,7.859,128.2,3.823,0.654,5.3,100.0815,-0.492,0.87,53.14,0,109.5,13.61,0.26,90.2
"2009-12-19 01:33:00",1515352,7.714,127.3,4.05,0.963,4.56,100.079,-0.498,0.83,53.16,0,109.5,13.61,0.25,89.3
"2009-12-19 01:33:30",1515353,7.247,124.5,5.973,1.158,3.807,100.0722,-0.516,0.822,53.22,0,109.5,13.62,0.23,86.5
"2009-12-19 01:34:00",1515354,7.423,126.3,5.507,1.067,4.36,100.0705,-0.52,0.811,53.28,0,109.5,13.62,0.23,88.3
"2009-12-19 01:34:30",1515355,7.084,125.8,5.799,1.166,4.539,100.0694,-0.523,0.789,53.37,0,109.6,13.62,0.23,87.8
"2009-12-19 01:35:00",1515356,7.515,126.8,5.624,1.044,4.568,100.0694,-0.523,0.738,53.38,0,109.5,13.62,0.23,88.8
"2009-12-19 01:35:30",1515357,7.554,127.5,5.73,1.067,5.148,100.0697,-0.522,0.825,53.48,0,109.5,13.62,0.23,89.5
"2009-12-19 01:36:00",1515358,7.657,130.2,4.21,1.027,5.649,100.0699,-0.521,0.796,53.54,0,109.5,13.62,0.23,92.2
"2009-12-19 01:36:30",1515359,8.08,129.6,3.751,0.66,5.326,100.0702,-0.521,0.779,53.53,0,109.5,13.62,0.23,91.6
"2009-12-19 01:37:00",1515360,7.999,130.4,4.323,0.715,5.81,100.0728,-0.514,0.817,53.58,0,109.5,13.62,0.24,92.4
"2009-12-19 01:37:30",1515361,7.936,131.6,2.665,0.753,5.847,100.0733,-0.513,0.828,53.56,0,109.5,13.62,0.24,93.6
"2009-12-19 01:38:00",1515362,7.922,132.6,3.332,0.735,5.906,100.0742,-0.51,0.817,53.59,0,109.5,13.62,0.24,94.6
"2009-12-19 01:38:30",1515363,8.08,132.4,3.957,0.525,5.704,100.0728,-0.514,0.802,53.62,0,109.5,13.62,0.24,94.4
"2009-12-19 01:39:00",1515364,8.05,132.1,2.578,0.6,5.404,100.0716,-0.517,0.81,53.61,0,109.5,13.62,0.23,94.1
"2009-12-19 01:39:30",1515365,8.03,131.3,3.383,0.654,5.376,100.0722,-0.515,0.819,53.6,0,109.5,13.62,0.23,93.3
"2009-12-19 01:40:00",1515366,8.05,130.7,4.223,0.641,5.319,100.0731,-0.513,0.807,53.62,0,109.5,13.62,0.24,92.7
"2009-12-19 01:40:30",1515367,8.09,130.5,3.156,0.719,5.151,100.0728,-0.514,0.819,53.63,0,109.5,13.62,0.24,92.5
"2009-12-19 01:41:00",1515368,7.918,129.9,3.174,0.641,4.925,100.0733,-0.513,0.812,53.62,0,109.5,13.62,0.24,91.9
"2009-12-19 01:41:30",1515369,7.774,130.2,3.293,0.741,4.975,100.0767,-0.504,0.793,53.54,0,109.5,13.62,0.25,92.2
"2009-12-19 01:42:00",1515370,7.911,130.8,3.14,0.439,4.997,100.0779,-0.501,0.803,53.54,0,109.5,13.62,0.25,92.8
"2009-12-19 01:42:30",1515371,7.699,131.3,2.467,0.807,4.792,100.0782,-0.5,0.802,53.55,0,109.5,13.62,0.25,93.3
"2009-12-19 01:43:00",1515372,6.958,127.1,5.74,1.165,3.482,100.0762,-0.505,0.74,53.51,0,109.5,13.62,0.24,89.1
"2009-12-19 01:43:30",1515373,6.659,125.8,5.546,1.18,3.112,100.0753,-0.508,0.69,53.48,0,109.5,13.62,0.24,87.8
"2009-12-19 01:44:00",1515374,7.264,128.6,5.216,1.016,4.453,100.079,-0.498,0.651,53.42,0,109.5,13.62,0.25,90.6
"2009-12-19 01:44:30",1515375,7.558,129.7,4.326,0.833,5.485,100.0793,-0.497,0.756,53.47,0,109.5,13.62,0.25,91.7
"2009-12-19 01:45:00",1515376,7.551,129.4,4.813,0.829,5.687,100.0782,-0.5,0.771,53.39,0,109.5,13.62,0.25,91.4
"2009-12-19 01:45:30",1515377,7.442,129.2,4.254,0.979,5.485,100.0801,-0.495,0.755,53.36,0,109.5,13.62,0.25,91.2
"2009-12-19 01:46:00",1515378,7.848,129.2,4.247,0.555,5.584,100.0827,-0.489,0.794,53.43,0,109.5,13.62,0.26,91.2
"2009-12-19 01:46:30",1515379,7.691,129.6,3.796,0.66,5.781,100.0816,-0.492,0.796,53.42,0,109.5,13.62,0.26,91.6
"2009-12-19 01:47:00",1515380,7.587,129.7,3.33,0.736,5.633,100.0821,-0.49,0.799,53.37,0,109.5,13.62,0.26,91.7
"2009-12-19 01:47:30",1515381,7.618,130.6,3.087,0.651,5.526,100.0827,-0.489,0.793,53.34,0,109.5,13.62,0.26,92.6
"2009-12-19 01:48:00",1515382,7.274,128.6,5.173,1.023,4.566,100.0827,-0.489,0.639,53.28,0,109.5,13.62,0.26,90.6